Flag for U.S.A. Weather past 2 weeks in Sandpoint, Idaho, U.S.A.

Now
50 °F

Passing clouds.


Feels Like: 50 °F
Forecast: 45 / 70 °F
Wind: No wind

Location: Sandpoint Airport

Current Time: Sep 1, 2015 at 3:21:45 AM

Latest Report: Sep 1, 2015 at 2:55 AM


Visibility: 10 mi

Pressure: 29.85 "Hg (27.64 "Hg at 636m altitude)

Humidity: 94%

Dew point: 48 °F

Location of SandpointLocation

Historic Weather in Sandpoint — Graph

°F

Sandpoint temperature yesterday

Maximum temperature yesterday: 66 °F (at 4:15 PM)
Minimum temperature yesterday: 45 °F (at 1:35 AM)
Average temperature yesterday: 56 °F

Past Weeks' High & Low Weather Summary

 TemperatureHumidityPressure
High90 °F (Aug 19, 3:55 PM)100% (Aug 29, 11:15 PM)30.22 "Hg (Aug 29, 11:15 PM)
Low36 °F (Aug 23, 5:55 AM)15% (Aug 19, 3:55 PM)29.63 "Hg (Aug 21, 1:35 AM)
Average62 °F54%29.94 "Hg
* Reported Aug 17 2:15 AM — Sep 1 2:15 AM, Sandpoint, Weather by CustomWeather, © 2015

Note: Actual official high and low records may vary slightly from our data, if they occured in-between our weather recording intervals... More about our weather records

Advertising

Sandpoint weather history for previous 24 hours

 ConditionsComfort  
Time TempWeatherWind HumidityBarometerVisibility
2:15 AM
Tue, Sep 1
55 °FOvercast.5 mph72%29.85 "Hg10 mi
1:55 AM52 °FOvercast.No wind94%29.85 "Hg10 mi
1:35 AM52 °FOvercast.No wind94%29.85 "Hg10 mi
1:15 AM52 °FPassing clouds.No wind94%29.85 "Hg10 mi
12:55 AM52 °FPassing clouds.No wind100%29.85 "Hg10 mi
12:35 AM52 °FPassing clouds.No wind94%29.85 "Hg10 mi
12:15 AM54 °FClear.No wind94%29.86 "Hg10 mi
11:55 PM
Mon, Aug 31
54 °FPassing clouds.3 mph94%29.86 "Hg10 mi
11:35 PM61 °FPassing clouds.No wind59%29.86 "Hg10 mi
11:15 PM54 °FPassing clouds.6 mph94%29.85 "Hg10 mi
10:55 PM54 °FPartly cloudy.No wind94%29.86 "Hg10 mi
10:35 PM54 °FPassing clouds.No wind94%29.86 "Hg10 mi
10:15 PM54 °FPartly cloudy.No wind94%29.86 "Hg10 mi
9:55 PM54 °FMostly cloudy.No wind94%29.86 "Hg10 mi
8:35 PM59 °FOvercast.No wind77%29.87 "Hg10 mi
7:55 PM59 °FOvercast.No wind77%29.88 "Hg10 mi
7:35 PM59 °FOvercast.3 mph77%29.88 "Hg10 mi
7:15 PM61 °FOvercast.No wind68%29.88 "Hg10 mi
6:55 PM61 °FOvercast.No wind68%29.89 "Hg10 mi
6:35 PM63 °FOvercast.No wind64%29.89 "Hg10 mi
6:15 PM63 °FOvercast.No wind64%29.90 "Hg10 mi
5:55 PM63 °FOvercast.No wind64%29.91 "Hg10 mi
5:35 PM64 °FOvercast.No wind52%29.91 "Hg10 mi
5:15 PM64 °FBroken clouds.No wind52%29.92 "Hg10 mi
4:55 PM64 °FPartly sunny.3 mph49%29.92 "Hg10 mi
4:35 PM64 °FMostly cloudy.5 mph49%29.94 "Hg10 mi
4:15 PM66 °FMostly cloudy.6 mph46%29.94 "Hg10 mi
3:55 PM64 °FOvercast.5 mph49%29.94 "Hg10 mi
3:35 PM63 °FOvercast.No wind56%29.96 "Hg10 mi
2:35 PM63 °FOvercast.7 mph52%29.97 "Hg10 mi
1:55 PM63 °FOvercast.12 mph52%29.99 "Hg10 mi
1:35 PM64 °FOvercast.6 mph49%29.99 "Hg10 mi
1:15 PM63 °FOvercast.5 mph52%30.00 "Hg10 mi
12:55 PM61 °FOvercast.No wind52%30.00 "Hg10 mi
12:35 PM61 °FOvercast.6 mph52%30.02 "Hg10 mi
12:15 PM63 °FOvercast.6 mph52%30.03 "Hg10 mi
11:55 AM61 °FBroken clouds.6 mph55%30.03 "Hg10 mi
11:35 AM61 °FBroken clouds.7 mph59%30.04 "Hg10 mi
11:15 AM59 °FMostly cloudy.6 mph59%30.04 "Hg10 mi
10:55 AM59 °FMostly cloudy.7 mph59%30.05 "Hg10 mi
10:35 AM57 °FCloudy.7 mph67%30.06 "Hg10 mi
10:15 AM55 °FMore clouds than sun.5 mph72%30.06 "Hg10 mi
9:55 AM55 °FPartly sunny.6 mph72%30.06 "Hg10 mi
9:35 AM55 °FBroken clouds.6 mph72%30.05 "Hg10 mi
9:15 AM55 °FBroken clouds.6 mph72%30.05 "Hg10 mi
8:55 AM54 °FBroken clouds.6 mph72%30.05 "Hg10 mi
8:35 AM54 °FBroken clouds.7 mph72%30.05 "Hg10 mi
8:15 AM54 °FScattered clouds.7 mph72%30.04 "Hg10 mi
7:55 AM54 °FBroken clouds.5 mph72%30.04 "Hg10 mi
7:35 AM52 °FMore clouds than sun.3 mph77%30.04 "Hg10 mi
7:15 AM52 °FCloudy.6 mph77%30.03 "Hg10 mi
6:55 AM52 °FMostly cloudy.6 mph77%30.03 "Hg10 mi
6:15 AM52 °FOvercast.5 mph77%30.02 "Hg10 mi
5:55 AM52 °FOvercast.5 mph77%30.01 "Hg10 mi
5:35 AM52 °FOvercast.3 mph77%30.00 "Hg10 mi
5:15 AM52 °FOvercast.5 mph77%30.00 "Hg10 mi
4:55 AM52 °FPassing clouds.5 mph77%30.00 "Hg10 mi
4:35 AM52 °FPassing clouds.5 mph77%30.00 "Hg10 mi
3:55 AM52 °FClear.5 mph77%30.00 "Hg10 mi
3:35 AM52 °FPassing clouds.5 mph77%30.00 "Hg10 mi
3:15 AM52 °FPassing clouds.5 mph77%30.00 "Hg10 mi
Weather by CustomWeather, © 2015

See weather overviewHow to use our weather pages